Showing default

TEMPSAT 2, 4168

Orbit data source: Space-Track

TEMPSAT 2, 4168 is a payload satellite owned by NRL (US) in LEO that was launched on Tue, 30 Sep 1969 UTC via a THORAD SLV-2G AGENA D launch vehicle from the Air Force Western Test Range (AFWTR). Payload-class satellites include a variety of spacecraft equipped with specific instruments for various scientific and technological missions. These include communications satellites like Starlink; space stations such as the ISS; scientific satellites like the Hubble; Earth observation satellites from companies like Planet Labs, Umbra, and HawkEye 360; GPS; miniature CubeSats for education and research; and military/defense satellites.

Loading next visibility...
Identifier
4168, 1969-082H
Orbit
LEO
Country
Flag of USUS
Related business
Manufacturer
NRL
Mission
Spacecraft
Bus & Motor
NRL 14"?, Unknown motor
Mass
14 kg wet, 14 kg dry
Launch date (UTC)
1969-09-30 (57 years ago)
Launch vehicle
THORAD SLV-2G AGENA D
Launch site
Air Force Western Test Range (AFWTR)
Object type
Payload
Rocket body
Debris
Shape & HBR
Unknown
Radar Cross Section
Small (<0.1 m²)

Expand to show TLE details & history
Last TLE update: 16 hours ago

TLE from 16 hours ago
0 TEMPSAT 2
1 04168U 69082H   26093.69378261  .00000062  00000-0  83693-4 0  9997
2 04168  70.0126 257.1400 0021928 228.2233 131.6999 13.96002897877690
Epoch: 2026-04-03T16:39Z
TLE epoch observation values (Epoch: 2026-04-03T16:39:02.817Z)
Latitude
-0.00006°
Longitude
175.354°
Altitude
920.631 km
Speed
7.386 km/s
True Right ascension
17h 08m 33s
True Declination
0° 00' 00"
Sunlit
Object was in daylight at epoch
Visualization orbit readout
Latitude
Unknown
Longitude
Unknown
Altitude
Unknown
Speed
Unknown
Apparent Right ascension
Unknown
Apparent Declination
Unknown
Sunlit
N/A
Visualization observer readout
Local Sidereal Time
14:27:25
Azimuth
Unknown
Elevation
Unknown
Doppler factor
Unknown
Orbital elements
Apogee altitude
921.683 km
Perigee altitude
889.739 km
Semi-major axis
7,283.848 km
Eccentricity
0.00219
Inclination
70.0126°
RAAN
257.14°
Arg. of periapsis
228.2233°
True anomaly
131.88717°
Mean anomaly
131.6999°
Eccentric anomaly
131.79357°
Mean motion
3.49142 °/min
Orbital period
103.11 mins
BSTAR
0.000083693
Loading maneuver chart data...
Computing Atmospheric mass density...

Documentation

Showing up to 5 results
|